[[{"header":{"parameterUnit":"m.s-1","parameterCategory":1,"la1":30.2991,"la2":30.254,"lo1":-89.0895,"lo2":-89.0444,"dy":0.0017,"dx":0.0017,"nx":28,"ny":28,"refTime":"2023-09-15T21:00:00:Z","depth":0,"parameterNumber":2,"parameterNumberName":"U-component_of_WINDS"},"data":[0,0,0,0,0,0,0,0,0,0,0,0,0,0,0,0,0,0,0,0,0,0,0,0,0,0,0,0,0,0,0,0,0,0,0,0,0,0,0,0,0,0,0,0,0,0,0,0,0,0,0,0,0,0,0,0,0,0,1.4361,1.4362,0,1.4472,1.4473,1.4474,1.4473,1.4471,1.447,1.4468,1.4588,1.4592,1.4597,0,0,0,0,0,0,0,0,0,0,0,0,0,1.4155,1.4158,1.4361,1.4362,1.4364,1.4472,1.4473,1.4475,1.4473,1.4471,1.4469,1.4468,1.4586,1.4591,1.4597,0,0,0,0,0,0,0,0,0,0,0,0,0,1.4253,1.416,1.4361,1.4376,1.4378,1.4471,1.4473,1.4475,1.4473,1.4471,1.4469,1.4467,1.4584,1.4591,1.4598,1.4685,0,0,1.4619,1.4622,0,0,0,0,0,0,0,0,1.4247,1.426,1.4372,1.4375,1.4378,1.4456,1.4444,1.4546,1.4474,1.4437,1.4468,1.4466,1.4546,1.4556,1.4582,1.4691,1.4696,1.4619,1.4623,1.4626,1.4628,0,0,0,0,0,0,0,1.424,1.4256,1.4405,1.4374,1.4377,1.4379,1.4391,1.4463,1.4503,1.444,1.444,1.4453,1.4547,1.4575,1.4585,1.4698,1.4619,1.4625,1.4629,1.4632,1.4888,1.489,0,0,0,0,0,0,1.423,1.425,1.4401,1.4408,1.4305,1.4385,1.4398,1.4433,1.4502,1.4511,1.4455,1.4453,1.4565,1.4577,1.4589,1.4698,1.4626,1.4633,1.4637,1.4885,1.4888,1.4891,0,0,0,0,0,0,1.4225,1.4243,1.4397,1.4329,1.4349,1.4391,1.4431,1.4437,1.4465,1.4513,1.4521,1.4476,1.4563,1.4579,1.4662,1.4702,1.4636,1.4642,1.4882,1.4886,1.489,1.4916,0,0,0,0,0,0,1.4219,1.4242,1.4273,1.433,1.4352,1.4466,1.4433,1.444,1.4476,1.4474,1.4535,1.4543,1.4563,1.4651,1.4668,1.471,1.4647,1.4878,1.4884,1.4888,1.4911,1.492,1.4927,0,0,0,0,0,1.4212,1.4277,1.4275,1.4293,1.4393,1.4468,1.4481,1.4501,1.4479,1.4513,1.4545,1.4541,1.4695,1.466,1.4679,1.4724,1.4876,1.4882,1.4888,1.4908,1.4918,1.4927,0,0,0,0,0,0,1.4225,1.4284,1.4283,1.4367,1.4413,1.4467,1.451,1.4511,1.4564,1.4561,1.4585,1.4599,1.4682,1.4711,1.4671,1.4814,1.4783,1.4793,1.4791,1.4802,1.481,1.4802,1.4653,0,0,0,0,0,1.4237,1.4291,1.4341,1.4411,1.4434,1.4468,1.4502,1.4513,1.4561,1.4581,1.4619,1.4668,1.4727,1.4766,1.4823,1.4915,1.4931,1.4956,1.4964,1.497,1.4979,1.5034,1.5046,1.4911,1.4911,1.4911,0,0,1.4264,1.4303,1.4336,1.4415,1.4451,1.4509,1.4484,1.4546,1.459,1.4591,1.4671,1.4701,1.4757,1.4846,1.4887,1.4873,1.502,1.4978,1.4983,1.4988,1.5041,1.5054,1.5065,1.4915,1.4914,1.4914,0,0,1.4343,1.4377,1.444,1.4477,1.4532,1.4555,1.457,1.4626,1.4645,1.4725,1.4728,1.4782,1.4883,1.4924,1.4959,1.5056,1.5056,1.5074,1.5116,1.5169,1.518,1.5189,1.5227,1.5239,1.5082,1.5082,1.5082,0,1.437,1.4455,1.4473,1.4536,1.4572,1.4574,1.464,1.4675,1.4747,1.4773,1.4756,1.4885,1.4923,1.5022,1.5046,1.5073,1.5094,1.5067,1.5176,1.5186,1.5196,1.5231,1.5245,1.5084,1.5084,1.5084,1.5084,0,1.4487,1.4547,1.4592,1.466,1.4701,1.4765,1.4795,1.4834,1.4843,1.4868,1.4953,1.4998,1.5066,1.5091,1.5099,1.5193,1.5183,1.5171,1.5141,1.521,1.5244,1.5258,1.5087,1.5087,1.5086,1.5085,0,0,1.4577,1.4655,1.4671,1.4704,1.4765,1.4813,1.4879,1.4943,1.4979,1.5028,1.5086,1.5173,1.5163,1.5202,1.5216,1.5261,1.5339,1.5245,1.5246,1.5263,1.5448,1.5458,1.5474,1.5339,1.5342,1.5344,1.5445,0,1.4664,1.4778,1.4797,1.4899,1.4956,1.496,1.5018,1.5063,1.5089,1.5144,1.5174,1.5236,1.5216,1.524,1.5286,1.532,1.5377,1.5313,1.5396,1.5399,1.5383,1.5491,1.5501,1.5594,1.5458,1.546,1.5462,0,1.4781,1.4833,1.494,1.4996,1.5021,1.5072,1.5135,1.5185,1.5239,1.5255,1.5299,1.5308,1.538,1.5346,1.5447,1.5402,1.5438,1.546,1.5465,1.5474,1.5435,1.5506,1.5624,1.5638,1.5482,1.5481,1.5479,0,1.4839,1.4936,1.5013,1.504,1.5107,1.5143,1.5173,1.5224,1.5263,1.5319,1.5345,1.5408,1.5444,1.5494,1.5522,1.5494,1.5622,1.5589,1.564,1.564,1.5668,1.5666,1.5795,1.5688,1.5687,1.5687,1.5687,0,1.4935,1.5001,1.504,1.5087,1.5162,1.5185,1.5259,1.5289,1.5335,1.5391,1.5398,1.5451,1.5483,1.5541,1.5563,1.5645,1.5661,1.5678,1.5684,1.5679,1.5677,1.5704,1.5699,1.5691,1.569,1.5689,1.5689,0,1.5012,1.5041,1.5125,1.5182,1.5198,1.5251,1.5301,1.5349,1.5376,1.5446,1.5464,1.5507,1.5576,1.5608,1.5694,1.5709,1.5804,1.5803,1.5785,1.5788,1.5837,1.5833,1.5989,1.6012,1.5888,1.5889,1.589,0,1.5073,1.5123,1.5186,1.5223,1.5253,1.5313,1.5353,1.5378,1.5419,1.5485,1.5526,1.5595,1.5652,1.5763,1.5804,1.587,1.5874,1.5924,1.5884,1.5878,1.5878,1.5875,1.5882,1.5931,1.5933,1.5934,1.5934,0,1.5178,1.519,1.5245,1.5307,1.5354,1.5404,1.5453,1.5484,1.5517,1.5564,1.5634,1.5678,1.5766,1.5836,1.5906,1.594,1.5945,1.5947,1.5962,1.5959,1.5947,1.5957,1.5807,1.5943,1.5942,1.5942,1.5941,1.5941,1.525,1.5297,1.5348,1.5411,1.5451,1.5497,1.5546,1.5578,1.5636,1.5709,1.5721,1.5796,1.5852,1.5946,1.5982,1.6044,1.6033,1.6055,1.6061,1.6067,1.6071,1.5935,1.6057,1.6056,1.6056,1.6056,1.6056,0,1.5358,1.5391,1.5449,1.5517,1.5568,1.5565,1.562,1.5663,1.5729,1.5779,1.5835,1.5918,1.5986,1.6032,1.6102,1.6143,1.6147,1.6161,1.6159,1.6168,1.6075,1.6056,1.6157,1.6157,1.6157,1.6157,1.6157,1.6157,1.542,1.5499,1.5517,1.5618,1.5651,1.5724,1.5756,1.5801,1.5841,1.5932,1.5988,1.6017,1.6067,1.6141,1.6205,1.6218,1.6244,1.6259,1.6271,1.6184,1.6174,1.6164,1.6146,1.6264,1.6264,1.6359,1.636,1.636]},{"header":{"parameterUnit":"m.s-1","parameterCategory":1,"la1":30.2991,"la2":30.254,"lo1":-89.0895,"lo2":-89.0444,"dy":0.0017,"dx":0.0017,"nx":28,"ny":28,"refTime":"2023-09-15T21:00:00:Z","depth":0,"parameterNumber":3,"parameterNumberName":"V-component_of_WINDS"},"data":[0,0,0,0,0,0,0,0,0,0,0,0,0,0,0,0,0,0,0,0,0,0,0,0,0,0,0,0,0,0,0,0,0,0,0,0,0,0,0,0,0,0,0,0,0,0,0,0,0,0,0,0,0,0,0,0,0,0,-3.5716,-3.5715,0,-3.5668,-3.5667,-3.5667,-3.5651,-3.5651,-3.5652,-3.5652,-3.5595,-3.5593,-3.5592,0,0,0,0,0,0,0,0,0,0,0,0,0,-3.579,-3.5788,-3.5716,-3.5715,-3.5715,-3.5668,-3.5667,-3.5667,-3.5651,-3.5651,-3.5652,-3.5652,-3.5596,-3.5594,-3.5592,0,0,0,0,0,0,0,0,0,0,0,0,0,-3.5751,-3.5788,-3.5716,-3.5702,-3.57,-3.5668,-3.5667,-3.5667,-3.5651,-3.5651,-3.5652,-3.5652,-3.5596,-3.5594,-3.5591,-3.5568,0,0,-3.5583,-3.5582,0,0,0,0,0,0,0,0,-3.5753,-3.5748,-3.5704,-3.5703,-3.5701,-3.5666,-3.5672,-3.5633,-3.5651,-3.5669,-3.5652,-3.5652,-3.5618,-3.5614,-3.5604,-3.5566,-3.5563,-3.5583,-3.5582,-3.558,-3.558,0,0,0,0,0,0,0,-3.5756,-3.575,-3.5697,-3.5704,-3.5701,-3.5696,-3.5691,-3.5665,-3.5642,-3.5668,-3.5667,-3.5661,-3.5617,-3.5606,-3.5602,-3.5562,-3.5583,-3.5581,-3.5579,-3.5578,-3.5506,-3.5505,0,0,0,0,0,0,-3.5762,-3.5753,-3.5698,-3.5695,-3.5729,-3.5694,-3.5689,-3.5677,-3.5642,-3.5638,-3.5661,-3.5661,-3.561,-3.5605,-3.56,-3.5572,-3.558,-3.5578,-3.5577,-3.5506,-3.5505,-3.5505,0,0,0,0,0,0,-3.5763,-3.5757,-3.57,-3.5724,-3.5716,-3.5693,-3.5679,-3.5675,-3.5665,-3.5638,-3.5633,-3.5655,-3.561,-3.5604,-3.5577,-3.557,-3.5577,-3.5575,-3.5506,-3.5506,-3.5505,-3.5516,0,0,0,0,0,0,-3.5766,-3.5758,-3.575,-3.5724,-3.5715,-3.568,-3.5679,-3.5674,-3.5661,-3.566,-3.563,-3.5625,-3.561,-3.5581,-3.5575,-3.5567,-3.5573,-3.5507,-3.5506,-3.5505,-3.5516,-3.5516,-3.5516,0,0,0,0,0,-3.5768,-3.5753,-3.5749,-3.5743,-3.5705,-3.5679,-3.5674,-3.5659,-3.5661,-3.5652,-3.5635,-3.5626,-3.5572,-3.5579,-3.5571,-3.5562,-3.5507,-3.5506,-3.5505,-3.5516,-3.5516,-3.5516,0,0,0,0,0,0,-3.5775,-3.5749,-3.5745,-3.5721,-3.5703,-3.5677,-3.5665,-3.5659,-3.5638,-3.5638,-3.5618,-3.5611,-3.5587,-3.5572,-3.5579,-3.5539,-3.5539,-3.5537,-3.555,-3.5549,-3.5549,-3.5553,-3.557,0,0,0,0,0,-3.5774,-3.5758,-3.5735,-3.5716,-3.5707,-3.5688,-3.5676,-3.5667,-3.5647,-3.5638,-3.5619,-3.5598,-3.5576,-3.5562,-3.554,-3.5514,-3.5508,-3.5505,-3.5504,-3.5504,-3.5502,-3.5489,-3.5488,-3.5502,-3.5502,-3.5502,0,0,-3.5771,-3.5755,-3.5745,-3.5717,-3.5702,-3.5684,-3.5681,-3.5662,-3.5648,-3.5634,-3.5609,-3.5595,-3.557,-3.5544,-3.5532,-3.5531,-3.5497,-3.5503,-3.5503,-3.5501,-3.5488,-3.5487,-3.5485,-3.5502,-3.5502,-3.5502,0,0,-3.5757,-3.5743,-3.5726,-3.5713,-3.5691,-3.5679,-3.5676,-3.5651,-3.5642,-3.5618,-3.5607,-3.559,-3.5553,-3.5536,-3.5523,-3.5507,-3.5498,-3.55,-3.5498,-3.5485,-3.5484,-3.5483,-3.5478,-3.5476,-3.5498,-3.5498,-3.5498,0,-3.5755,-3.573,-3.5718,-3.5701,-3.5688,-3.5679,-3.5661,-3.5648,-3.5619,-3.5611,-3.5611,-3.5567,-3.5549,-3.552,-3.5517,-3.5506,-3.5501,-3.5502,-3.5486,-3.5484,-3.5483,-3.5478,-3.5476,-3.5498,-3.5498,-3.5498,-3.5498,0,-3.5729,-3.5712,-3.5701,-3.5678,-3.5665,-3.5647,-3.5632,-3.5619,-3.5612,-3.56,-3.5575,-3.5555,-3.553,-3.5523,-3.5513,-3.5493,-3.5494,-3.549,-3.5489,-3.5483,-3.5477,-3.5475,-3.5499,-3.5499,-3.5499,-3.5499,0,0,-3.5715,-3.5689,-3.5685,-3.5675,-3.5653,-3.5638,-3.5621,-3.56,-3.559,-3.5571,-3.5556,-3.5527,-3.5525,-3.551,-3.5499,-3.5488,-3.5478,-3.5486,-3.5485,-3.5486,-3.5455,-3.5458,-3.5456,-3.5473,-3.5473,-3.5472,-3.5458,0,-3.5698,-3.5669,-3.5659,-3.5634,-3.5618,-3.561,-3.5595,-3.5579,-3.5568,-3.5552,-3.5538,-3.5519,-3.5517,-3.5508,-3.5497,-3.5482,-3.5471,-3.5482,-3.5457,-3.5457,-3.5464,-3.5453,-3.5455,-3.5443,-3.5456,-3.5455,-3.5455,0,-3.5674,-3.5659,-3.5633,-3.5616,-3.5608,-3.5595,-3.5576,-3.5562,-3.5543,-3.5536,-3.5522,-3.5513,-3.5493,-3.5496,-3.5469,-3.5477,-3.5466,-3.5457,-3.5456,-3.5453,-3.5455,-3.5449,-3.5438,-3.5436,-3.5451,-3.5452,-3.5452,0,-3.5667,-3.564,-3.5622,-3.5614,-3.5592,-3.5583,-3.5574,-3.5556,-3.5545,-3.5528,-3.5521,-3.5501,-3.549,-3.5474,-3.546,-3.5462,-3.5435,-3.5435,-3.5427,-3.5428,-3.5421,-3.5421,-3.5408,-3.5415,-3.5415,-3.5415,-3.5415,0,-3.5649,-3.5633,-3.5619,-3.5608,-3.5591,-3.558,-3.5563,-3.5552,-3.5538,-3.5523,-3.5514,-3.5501,-3.5483,-3.5468,-3.5456,-3.5437,-3.5431,-3.5424,-3.5421,-3.5425,-3.5426,-3.5417,-3.5417,-3.5414,-3.5414,-3.5414,-3.5414,0,-3.5638,-3.5628,-3.5607,-3.559,-3.5586,-3.5574,-3.5558,-3.5547,-3.5537,-3.5519,-3.5514,-3.5497,-3.5479,-3.5464,-3.5438,-3.5431,-3.541,-3.5407,-3.5417,-3.5416,-3.5409,-3.541,-3.5389,-3.5386,-3.5395,-3.5395,-3.5395,0,-3.5626,-3.5615,-3.5598,-3.559,-3.5581,-3.5566,-3.5556,-3.5545,-3.5535,-3.5515,-3.5506,-3.5488,-3.5472,-3.5443,-3.5427,-3.5408,-3.5404,-3.5398,-3.5401,-3.5406,-3.5405,-3.5406,-3.5405,-3.5398,-3.5398,-3.5398,-3.5398,0,-3.5608,-3.5605,-3.5591,-3.5577,-3.5566,-3.5553,-3.554,-3.5533,-3.552,-3.5509,-3.5491,-3.548,-3.5456,-3.5438,-3.5418,-3.5406,-3.54,-3.5398,-3.5395,-3.5398,-3.5405,-3.5402,-3.5416,-3.5397,-3.5397,-3.5397,-3.5397,-3.5397,-3.5597,-3.5587,-3.5575,-3.5561,-3.5551,-3.554,-3.5529,-3.5519,-3.5505,-3.5487,-3.5481,-3.5464,-3.5448,-3.5421,-3.541,-3.5395,-3.5394,-3.539,-3.5389,-3.5388,-3.5389,-3.5408,-3.5391,-3.5391,-3.5391,-3.5391,-3.5391,0,-3.5578,-3.5571,-3.5558,-3.5543,-3.5532,-3.553,-3.5516,-3.5507,-3.5492,-3.5479,-3.5466,-3.5447,-3.543,-3.5415,-3.5397,-3.5388,-3.5385,-3.5384,-3.5384,-3.5382,-3.539,-3.5395,-3.5387,-3.5387,-3.5387,-3.5387,-3.5387,-3.5387,-3.5568,-3.5552,-3.5547,-3.5527,-3.5519,-3.5504,-3.5496,-3.5486,-3.5476,-3.5456,-3.5444,-3.5435,-3.5421,-3.5403,-3.5388,-3.5384,-3.5377,-3.5377,-3.5372,-3.538,-3.5381,-3.5381,-3.5386,-3.5376,-3.5376,-3.5365,-3.5365,-3.5365]}]]